Precipitable_Water
0.08 0.05 0.04 0.06 0.07 0.07 0.06 0.05 0.05 0.06 0.08 0.07 0.07 0.06 0.06 0.07 0.06 0.05 0.05 0.05 0.05 0.07 0.10 0.16 0.23 0.33 0.45 0.57 0.62 0.67 0.86 0.90 0.94 0.89 0.80 0.72 0.63 0.63 0.60 0.62 0.64 0.66 0.65 0.67
0.05 0.04 0.06 0.08 0.07 0.06 0.05 0.05 0.05 0.06 0.08 0.06 0.06 0.05 0.06 0.06 0.08 0.07 0.07 0.07 0.08 0.08 0.09 0.10 0.15 0.23 0.36 0.48 0.58 0.63 0.70 0.86 0.86 0.88 0.86 0.79 0.70 0.66 0.61 0.61 0.63 0.66 0.66 0.67
0.04 0.06 0.07 0.07 0.06 0.05 0.06 0.06 0.06 0.06 0.07 0.07 0.06 0.03 0.04 0.05 0.07 0.07 0.08 0.09 0.11 0.11 0.12 0.12 0.13 0.17 0.26 0.40 0.55 0.61 0.63 0.74 0.82 0.86 0.88 0.82 0.79 0.71 0.62 0.58 0.59 0.63 0.65 0.66
0.05 0.08 0.06 0.06 0.06 0.07 0.04 0.08 0.08 0.07 0.06 0.03 0.07 0.02 0.04 0.06 0.06 0.08 0.08 0.10 0.11 0.12 0.15 0.17 0.18 0.17 0.21 0.31 0.48 0.60 0.64 0.65 0.78 0.83 0.83 0.77 0.68 0.58 0.59 0.55 0.55 0.58 0.64 0.65
0.06 0.06 0.06 0.05 0.07 0.08 0.06 0.10 0.08 0.08 0.07 0.06 0.06 0.06 0.04 0.06 0.06 0.07 0.09 0.11 0.12 0.14 0.15 0.15 0.16 0.17 0.20 0.28 0.37 0.53 0.67 0.67 0.70 0.78 0.78 0.77 0.74 0.70 0.66 0.62 0.56 0.55 0.60 0.64
0.07 0.11 0.09 0.08 0.09 0.09 0.11 0.08 0.08 0.08 0.08 0.04 0.07 0.06 0.04 0.05 0.06 0.08 0.10 0.13 0.15 0.15 0.16 0.17 0.19 0.20 0.19 0.21 0.33 0.49 0.62 0.69 0.67 0.73 0.76 0.75 0.74 0.69 0.66 0.64 0.57 0.53 0.55 0.60
0.07 0.06 0.09 0.10 0.08 0.09 0.09 0.07 0.04 0.03 0.04 0.03 0.07 0.06 0.05 0.08 0.08 0.10 0.15 0.17 0.18 0.22 0.26 0.26 0.26 0.26 0.22 0.20 0.29 0.43 0.55 0.64 0.71 0.64 0.73 0.73 0.75 0.72 0.69 0.66 0.61 0.54 0.51 0.53
0.05 0.03 0.06 0.09 0.09 0.08 0.09 0.10 0.07 0.03 0.04 0.05 0.08 0.05 0.06 0.08 0.13 0.15 0.16 0.21 0.19 0.20 0.24 0.30 0.30 0.29 0.28 0.24 0.25 0.38 0.50 0.59 0.71 0.64 0.67 0.73 0.75 0.74 0.70 0.72 0.69 0.59 0.53 0.51
0.07 0.05 0.08 0.10 0.10 0.10 0.08 0.08 0.14 0.10 0.09 0.07 0.08 0.09 0.09 0.08 0.11 0.16 0.19 0.18 0.19 0.21 0.26 0.32 0.33 0.31 0.30 0.30 0.23 0.33 0.44 0.53 0.64 0.68 0.63 0.69 0.71 0.72 0.70 0.69 0.75 0.66 0.60 0.55
0.12 0.07 0.08 0.08 0.10 0.10 0.10 0.12 0.07 0.08 0.05 0.04 0.06 0.06 0.05 0.08 0.11 0.16 0.16 0.19 0.19 0.22 0.26 0.31 0.34 0.35 0.36 0.37 0.30 0.26 0.39 0.48 0.58 0.67 0.62 0.64 0.67 0.70 0.71 0.69 0.71 0.70 0.64 0.59
0.14 0.11 0.08 0.10 0.07 0.06 0.08 0.10 0.10 0.09 0.08 0.06 0.05 0.05 0.08 0.12 0.16 0.17 0.18 0.20 0.24 0.28 0.32 0.34 0.41 0.42 0.43 0.41 0.36 0.30 0.28 0.42 0.55 0.63 0.67 0.61 0.64 0.65 0.70 0.67 0.71 0.73 0.68 0.63
0.15 0.12 0.08 0.08 0.09 0.11 0.10 0.10 0.09 0.06 0.05 0.07 0.07 0.07 0.11 0.15 0.18 0.22 0.21 0.23 0.30 0.35 0.37 0.43 0.47 0.47 0.49 0.45 0.41 0.37 0.32 0.31 0.46 0.57 0.69 0.65 0.64 0.64 0.63 0.65 0.68 0.74 0.69 0.66
0.15 0.11 0.07 0.07 0.07 0.08 0.08 0.09 0.10 0.10 0.10 0.06 0.06 0.06 0.11 0.16 0.18 0.21 0.25 0.26 0.33 0.37 0.41 0.48 0.50 0.49 0.50 0.48 0.44 0.43 0.33 0.26 0.40 0.53 0.63 0.71 0.63 0.62 0.59 0.61 0.66 0.70 0.69 0.66
0.18 0.13 0.09 0.06 0.07 0.10 0.09 0.10 0.10 0.11 0.07 0.05 0.06 0.08 0.10 0.15 0.16 0.20 0.25 0.31 0.33 0.38 0.40 0.45 0.47 0.48 0.49 0.51 0.47 0.46 0.35 0.26 0.38 0.54 0.59 0.69 0.64 0.62 0.62 0.61 0.64 0.67 0.66 0.65
0.15 0.09 0.10 0.11 0.12 0.11 0.10 0.10 0.09 0.08 0.08 0.07 0.07 0.09 0.12 0.15 0.18 0.22 0.27 0.30 0.32 0.36 0.40 0.43 0.46 0.48 0.49 0.51 0.48 0.49 0.41 0.30 0.44 0.55 0.59 0.66 0.72 0.67 0.66 0.62 0.62 0.67 0.65 0.63
0.15 0.09 0.10 0.09 0.10 0.10 0.09 0.10 0.09 0.08 0.08 0.09 0.11 0.10 0.16 0.18 0.21 0.21 0.26 0.29 0.31 0.35 0.39 0.43 0.46 0.50 0.50 0.51 0.49 0.52 0.48 0.37 0.53 0.58 0.60 0.71 0.76 0.70 0.66 0.62 0.61 0.65 0.65 0.64
0.13 0.11 0.09 0.06 0.09 0.10 0.07 0.07 0.07 0.07 0.09 0.10 0.07 0.09 0.16 0.17 0.19 0.20 0.27 0.30 0.32 0.35 0.39 0.42 0.45 0.48 0.51 0.52 0.52 0.53 0.55 0.47 0.59 0.65 0.69 0.70 0.75 0.71 0.67 0.64 0.62 0.62 0.64 0.65
0.12 0.12 0.11 0.07 0.09 0.04 0.07 0.10 0.10 0.10 0.09 0.10 0.11 0.12 0.14 0.17 0.21 0.23 0.27 0.28 0.32 0.35 0.39 0.43 0.46 0.49 0.54 0.55 0.54 0.59 0.63 0.56 0.62 0.68 0.72 0.71 0.73 0.74 0.69 0.65 0.61 0.63 0.65 0.64
0.16 0.13 0.09 0.07 0.06 0.08 0.08 0.09 0.09 0.10 0.08 0.10 0.09 0.14 0.16 0.16 0.21 0.19 0.24 0.27 0.33 0.36 0.41 0.44 0.47 0.50 0.54 0.54 0.55 0.60 0.65 0.68 0.66 0.69 0.73 0.73 0.74 0.76 0.70 0.65 0.63 0.63 0.64 0.65
0.12 0.13 0.10 0.08 0.06 0.05 0.06 0.09 0.13 0.14 0.09 0.10 0.14 0.17 0.17 0.15 0.13 0.15 0.22 0.26 0.32 0.35 0.41 0.44 0.48 0.51 0.54 0.55 0.57 0.60 0.66 0.70 0.71 0.74 0.74 0.78 0.78 0.77 0.74 0.68 0.65 0.64 0.65 0.65
0.09 0.09 0.08 0.08 0.07 0.07 0.10 0.11 0.15 0.09 0.08 0.17 0.19 0.15 0.14 0.14 0.16 0.20 0.24 0.25 0.30 0.33 0.40 0.45 0.48 0.48 0.51 0.55 0.55 0.56 0.61 0.64 0.71 0.79 0.80 0.79 0.81 0.79 0.81 0.74 0.69 0.65 0.64 0.65
0.08 0.09 0.08 0.08 0.07 0.05 0.09 0.13 0.12 0.15 0.18 0.18 0.15 0.15 0.15 0.17 0.17 0.20 0.22 0.23 0.25 0.30 0.35 0.41 0.45 0.47 0.51 0.54 0.54 0.53 0.56 0.64 0.70 0.78 0.80 0.79 0.80 0.82 0.84 0.78 0.70 0.66 0.65 0.63
0.08 0.09 0.09 0.09 0.09 0.11 0.12 0.12 0.13 0.14 0.16 0.15 0.15 0.16 0.18 0.18 0.17 0.19 0.21 0.22 0.24 0.29 0.32 0.38 0.41 0.46 0.49 0.52 0.54 0.53 0.56 0.63 0.68 0.73 0.74 0.79 0.81 0.82 0.84 0.81 0.73 0.65 0.64 0.62
0.10 0.13 0.11 0.12 0.12 0.13 0.14 0.16 0.16 0.16 0.14 0.16 0.17 0.19 0.20 0.18 0.19 0.19 0.20 0.21 0.22 0.27 0.29 0.34 0.37 0.43 0.45 0.49 0.52 0.53 0.57 0.62 0.66 0.69 0.73 0.77 0.77 0.78 0.80 0.82 0.80 0.69 0.64 0.63
0.11 0.14 0.13 0.11 0.11 0.14 0.16 0.17 0.17 0.17 0.18 0.18 0.21 0.21 0.20 0.20 0.19 0.20 0.19 0.21 0.22 0.25 0.28 0.31 0.35 0.39 0.43 0.47 0.50 0.54 0.56 0.60 0.62 0.65 0.70 0.73 0.77 0.79 0.78 0.81 0.82 0.76 0.73 0.71
0.13 0.12 0.11 0.10 0.12 0.14 0.14 0.17 0.18 0.18 0.17 0.18 0.19 0.21 0.21 0.21 0.19 0.20 0.19 0.22 0.22 0.23 0.25 0.26 0.30 0.35 0.40 0.43 0.48 0.52 0.55 0.56 0.58 0.60 0.63 0.66 0.71 0.77 0.76 0.76 0.78 0.83 0.79 0.78
Wind_Speed
15 13 15 18 17 19 22 24 28 28 28 32 32 43 40 38 39 39 39 39 40 38 38 37 36 35 34 34 35 37 37 36 35 33 31 30 30 29 28 26 24 21 19 16
14 12 16 16 16 17 20 22 24 28 29 33 35 44 41 38 35 35 36 37 38 38 38 38 37 37 36 35 36 37 39 39 38 36 34 32 31 31 30 28 26 24 21 19
10 14 15 15 15 18 18 19 23 26 31 29 32 36 29 31 32 32 32 34 34 36 36 37 37 38 38 37 36 37 39 41 40 39 36 33 33 32 32 30 27 25 24 21
11 14 14 14 15 18 18 21 25 28 27 24 24 32 30 28 30 28 30 31 33 34 34 35 36 38 39 40 39 39 39 41 42 42 40 38 35 33 33 32 30 29 26 24
12 13 13 13 16 19 19 24 26 26 25 24 21 23 29 30 28 31 32 33 35 34 35 36 37 38 39 41 41 41 41 41 43 44 43 41 38 36 35 34 33 31 29 26
9 11 11 13 18 16 22 23 19 17 17 17 18 20 26 23 32 35 34 34 34 35 36 37 36 37 39 41 42 41 42 42 43 45 45 44 41 38 37 36 35 33 31 29
10 9 11 12 15 16 21 19 17 17 17 18 21 26 27 31 32 32 34 33 33 33 34 36 35 35 39 41 42 43 44 43 43 46 46 46 44 41 39 39 38 36 33 31
7 10 12 17 15 18 18 16 13 17 19 26 26 21 23 31 32 30 33 33 37 37 38 38 38 37 38 42 43 44 45 45 44 44 47 47 46 43 41 41 40 38 36 33
7 11 14 17 19 16 17 16 17 19 21 22 20 24 31 26 30 30 34 35 37 39 38 40 40 39 39 42 45 46 46 48 47 46 46 48 48 46 43 42 41 40 38 36
12 13 15 20 17 16 15 17 15 17 19 22 24 29 27 30 32 35 37 38 40 39 41 41 40 39 40 41 45 47 49 49 49 48 47 48 49 48 46 44 43 41 40 38
13 12 19 18 17 18 16 13 16 17 18 20 25 24 26 31 31 37 38 40 39 39 37 37 38 38 39 41 44 48 49 50 51 50 49 49 50 49 48 46 44 43 42 41
16 17 17 21 19 17 13 15 16 17 22 25 31 31 27 25 34 35 38 38 35 33 31 33 34 35 37 40 43 48 50 52 52 51 50 50 50 50 50 48 47 45 44 43
20 17 21 21 16 16 19 20 23 23 27 29 28 28 28 33 32 35 37 34 30 28 27 28 32 32 34 37 41 45 50 53 53 52 51 50 51 52 51 50 48 46 45 45
24 20 19 24 25 27 29 28 26 27 26 30 30 36 35 32 31 34 35 29 28 24 24 26 28 31 32 35 39 42 47 51 53 52 52 51 51 52 51 50 49 48 46 46
18 22 22 26 30 30 32 32 30 28 31 28 35 33 31 28 29 30 32 27 27 22 21 23 25 27 29 32 35 38 43 48 51 51 51 51 50 51 51 50 50 48 47 47
21 24 25 31 30 31 35 31 31 31 32 30 30 34 25 28 28 28 29 26 24 21 19 21 21 24 25 29 33 35 39 45 50 50 50 50 49 50 51 50 50 49 47 47
25 25 26 31 24 27 28 25 25 23 22 23 27 28 26 26 26 26 26 23 24 21 20 21 20 21 22 25 30 33 35 42 48 47 48 49 48 49 51 51 50 50 48 47
25 25 25 30 26 28 25 24 23 23 30 27 27 27 24 25 25 24 22 21 22 20 20 20 19 18 18 21 26 30 32 39 46 46 46 48 47 47 49 50 50 50 49 48
21 22 25 24 27 36 35 31 30 26 31 27 26 25 22 23 23 21 20 20 21 19 19 17 18 15 15 17 23 27 30 35 42 44 45 46 46 46 47 49 50 50 49 48
23 25 25 26 31 34 36 35 28 28 31 27 20 19 22 23 21 21 21 21 20 18 18 18 17 13 11 13 18 24 28 31 39 42 44 44 45 45 46 48 49 49 49 48
28 29 28 30 34 36 36 34 29 24 23 17 20 26 26 23 22 24 22 19 18 16 16 17 14 12 11 10 15 23 27 29 32 40 42 43 43 44 44 46 48 48 48 47
28 28 29 29 29 39 38 31 24 23 28 28 29 26 26 25 24 20 19 17 17 15 14 15 14 12 11 8 11 18 25 29 32 36 40 42 42 43 43 45 46 48 48 48
29 27 34 32 38 45 44 42 39 37 33 31 29 26 23 22 21 20 18 17 16 15 13 13 13 11 10 8 7 13 21 27 30 35 39 39 41 42 43 43 44 45 47 47
33 35 36 40 42 42 40 37 34 31 33 31 30 26 25 23 21 19 18 16 15 14 12 12 11 10 11 8 6 8 15 24 29 32 34 38 39 41 42 43 44 45 46 47
38 37 36 41 42 40 35 31 28 27 26 27 25 24 24 23 22 19 17 16 15 13 12 10 9 9 9 8 5 5 8 17 25 30 33 35 36 38 41 42 42 44 46 47
33 33 35 38 42 39 37 32 28 27 27 28 26 27 26 24 23 19 18 16 14 13 11 10 8 9 8 8 5 3 4 10 19 25 30 33 36 37 39 40 40 40 43 45
Wind_Direction
288 291 292 287 284 273 272 271 273 274 273 282 272 271 272 273 268 266 265 264 263 259 259 255 251 249 248 243 237 233 229 227 225 223 222 221 219 218 218 216 215 214 213 212
282 297 289 284 285 287 283 280 281 280 283 282 276 274 275 271 266 266 266 264 263 261 259 255 251 247 245 243 238 234 230 227 226 224 223 222 220 219 218 216 215 215 214 213
285 282 288 286 292 305 289 286 287 284 291 279 283 271 266 271 271 270 268 265 263 262 259 257 252 246 244 241 238 234 231 228 226 223 222 221 220 220 218 217 216 216 215 213
282 289 295 291 297 302 290 295 291 291 294 283 292 274 271 272 277 272 275 271 268 264 262 256 252 249 243 240 239 236 233 228 225 222 221 220 222 220 218 217 216 215 214 213
276 292 292 296 302 301 289 299 293 290 287 288 287 278 270 279 272 279 278 276 273 265 262 259 255 252 245 241 238 236 232 228 224 222 221 221 221 220 218 217 215 214 214 214
283 287 292 299 305 301 303 301 298 292 285 289 284 285 279 286 285 281 279 278 276 271 266 260 256 251 245 241 236 233 230 228 224 222 221 220 220 218 217 216 215 215 214 214
289 303 304 312 310 309 322 313 301 300 297 280 294 289 277 289 290 286 286 278 277 272 265 261 257 254 248 240 235 232 228 227 225 222 221 220 220 218 217 216 215 214 214 214
310 301 323 321 315 307 315 316 302 296 296 292 291 278 280 292 295 295 291 284 280 274 268 260 257 254 252 240 235 231 228 226 224 222 221 221 220 219 218 217 216 215 214 214
309 303 310 317 318 312 311 314 304 296 293 291 286 289 292 291 301 300 299 295 287 279 269 261 258 254 250 242 235 231 227 225 224 222 220 220 219 218 218 217 216 216 215 215
302 302 307 318 320 317 308 306 312 309 308 299 292 295 293 304 300 305 303 300 294 281 271 261 257 253 250 242 236 230 228 225 224 223 221 219 218 218 218 217 216 215 215 215
313 303 307 319 315 314 317 305 309 305 301 298 299 291 301 302 305 308 305 301 296 286 270 260 254 253 248 242 236 231 229 225 223 222 221 220 218 217 217 216 216 215 215 214
316 305 305 301 305 307 308 300 305 307 299 294 290 287 296 302 310 309 309 304 298 291 273 262 255 253 247 242 237 232 229 226 224 222 221 220 218 216 216 216 215 215 214 214
314 309 310 314 310 299 310 302 301 297 296 288 290 293 298 303 308 312 313 309 303 294 280 265 258 252 248 243 238 233 228 225 223 221 219 218 217 215 215 215 215 214 214 214
303 300 293 294 293 299 296 294 294 291 292 292 289 293 297 304 310 316 318 309 306 300 283 276 261 254 250 244 238 233 228 224 220 218 217 216 216 215 214 214 214 214 214 214
304 298 297 293 294 294 292 292 292 286 284 287 291 290 293 301 308 315 318 311 312 303 297 285 269 259 252 246 237 232 226 222 216 215 216 215 214 214 213 213 213 214 214 214
309 303 304 297 294 291 291 293 289 287 286 284 284 286 292 297 303 313 320 316 313 307 306 300 281 266 256 246 234 230 225 218 213 214 214 213 213 212 212 212 212 212 213 214
305 305 306 302 303 302 296 295 290 289 288 289 290 292 291 291 300 312 317 317 317 311 309 312 292 272 259 246 233 226 222 216 211 211 211 210 211 211 211 211 211 212 212 213
301 304 304 302 307 295 298 304 297 289 290 289 287 292 285 285 293 303 312 313 317 316 310 311 307 285 265 247 230 224 219 213 209 210 209 209 209 210 210 210 211 211 212 212
299 307 308 303 296 296 300 299 293 288 288 286 285 279 285 291 291 298 312 310 315 317 317 311 317 297 270 246 229 221 216 212 209 208 207 207 208 209 209 210 210 211 211 212
311 303 306 305 299 297 303 305 294 291 284 288 276 272 284 296 292 298 311 314 314 313 320 316 312 316 284 254 230 218 213 210 208 207 207 207 207 208 209 210 210 210 211 212
314 312 300 300 296 298 305 303 294 276 282 286 283 290 287 284 285 291 302 310 311 308 318 330 323 316 310 271 232 218 213 210 211 208 206 207 207 208 209 209 210 210 211 211
308 308 306 308 302 299 306 302 289 281 285 285 289 284 282 282 286 287 295 305 310 310 309 323 330 322 317 291 238 222 216 214 212 209 207 207 208 209 209 209 210 210 210 211
308 303 304 301 299 302 300 292 285 276 274 275 282 280 275 279 281 285 292 301 307 311 308 315 325 326 325 315 263 231 221 216 213 210 209 208 208 208 209 209 210 211 211 211
310 303 302 305 306 302 302 295 285 270 269 269 272 268 270 272 277 277 285 294 300 305 311 311 318 320 335 323 300 245 225 216 213 210 208 208 209 210 211 212 212 212 212 212
309 309 306 305 308 308 304 296 283 270 267 269 265 261 265 267 271 269 280 287 294 297 307 311 316 320 328 331 309 267 231 215 212 211 209 209 209 209 210 212 212 213 213 213
313 311 308 307 310 307 305 297 283 273 268 264 265 266 263 264 262 264 272 278 284 290 297 303 308 325 325 334 328 306 242 215 210 210 210 211 211 210 209 211 212 214 214 213